| time (UTC) | temp C | wind direction | speed KPH | gust KPH | rain 1hr cm | rain 24hr cm | rain mn cm | humidity % | barometer mb |
| 20260507052029 | 11 | 7 | 1.6 | 1.6 | 0.00 | 0.64 | 0.64 | 82 | 1009.9 |
| 20260507051022 | 11 | 148 | 1.6 | 3.2 | 0.00 | 0.64 | 0.64 | 85 | 1009.9 |
| 20260507050033 | 10 | 211 | 1.6 | 3.2 | 0.00 | 0.64 | 0.64 | 85 | 1009.9 |
| 20260507045031 | 10 | 195 | 0.0 | 1.6 | 0.00 | 0.64 | 0.64 | 84 | 1009.9 |
| 20260507044022 | 10 | 163 | 1.6 | 3.2 | 0.10 | 0.64 | 0.64 | 85 | 1009.9 |
| 20260507043027 | 10 | 162 | 0.0 | 3.2 | 0.10 | 0.64 | 0.64 | 81 | 1009.9 |
| 20260507042055 | 10 | 0.0 | 0.0 | 0.10 | 0.64 | 0.64 | 81 | 1009.9 | |
| 20260507041022 | 10 | 28 | 0.0 | 1.6 | 0.10 | 0.64 | 0.64 | 81 | 1009.9 |
| 20260507040100 | 10 | 0.0 | 0.0 | 0.00 | 0.51 | 0.48 | 83 | 1009.9 | |
| 20260507035047 | 10 | 225 | 0.0 | 1.6 | 0.00 | 0.51 | 0.48 | 83 | 1009.9 |
| 20260507034017 | 10 | 0.0 | 0.0 | 0.00 | 0.51 | 0.48 | 84 | 1009.3 | |
| 20260507033103 | 10 | 135 | 0.0 | 1.6 | 0.00 | 0.51 | 0.48 | 81 | 1008.9 |
| 20260507032036 | 10 | 354 | 1.6 | 3.2 | 0.00 | 0.51 | 0.48 | 81 | 1008.9 |
| 20260507031038 | 10 | 11 | 1.6 | 3.2 | 0.00 | 0.51 | 0.48 | 83 | 1008.9 |
| 20260507025050 | 10 | 272 | 1.6 | 3.2 | 0.00 | 0.51 | 0.48 | 85 | 1008.9 |
| 20260507024034 | 10 | 183 | 1.6 | 3.2 | 0.10 | 0.51 | 0.48 | 83 | 1008.9 |
| 20260507023031 | 10 | 29 | 1.6 | 3.2 | 0.10 | 0.51 | 0.48 | 83 | 1008.9 |
| 20260507022015 | 10 | 276 | 0.0 | 1.6 | 0.10 | 0.51 | 0.48 | 84 | 1008.9 |
| 20260507021116 | 10 | 280 | 0.0 | 1.6 | 0.00 | 0.43 | 0.41 | 80 | 1008.9 |
| 20260507020043 | 10 | 277 | 1.6 | 3.2 | 0.00 | 0.43 | 0.41 | 83 | 1008.9 |
| 20260507015037 | 10 | 238 | 1.6 | 3.2 | 0.00 | 0.43 | 0.41 | 84 | 1008.9 |
| 20260507014017 | 10 | 355 | 4.8 | 9.7 | 0.00 | 0.43 | 0.41 | 81 | 1008.2 |
| 20260507013056 | 10 | 20 | 6.4 | 9.7 | 0.00 | 0.43 | 0.41 | 78 | 1007.8 |
| 20260507012017 | 10 | 38 | 6.4 | 8.0 | 0.00 | 0.43 | 0.41 | 77 | 1007.8 |
| 20260507011057 | 11 | 45 | 6.4 | 11.3 | 0.00 | 0.43 | 0.41 | 76 | 1008.9 |
| 20260507010023 | 11 | 9 | 6.4 | 8.0 | 0.00 | 0.43 | 0.41 | 75 | 1008.9 |
| 20260507005101 | 11 | 34 | 4.8 | 6.4 | 0.00 | 0.43 | 0.41 | 75 | 1008.9 |
| 20260507004026 | 11 | 48 | 4.8 | 8.0 | 0.33 | 0.43 | 0.41 | 75 | 1008.9 |
| 20260507003027 | 11 | 37 | 6.4 | 9.7 | 0.20 | 0.30 | 0.28 | 77 | 1008.9 |
| 20260507002050 | 12 | 278 | 6.4 | 9.7 | 0.10 | 0.20 | 0.18 | 82 | 1008.9 |
| 20260507001114 | 12 | 243 | 3.2 | 3.2 | 0.10 | 0.20 | 0.18 | 80 | 1008.2 |
| 20260507000015 | 12 | 355 | 0.0 | 3.2 | 0.00 | 0.10 | 0.08 | 77 | 1007.8 |
| 20260506235037 | 12 | 0.0 | 0.0 | 0.00 | 0.10 | 0.08 | 79 | 1007.8 | |
| 20260506234044 | 13 | 0.0 | 0.0 | 0.00 | 0.00 | 0.00 | 75 | 1007.8 | |
| 20260506232515 | 12 | 175 | 1.6 | 3.2 | 0.00 | 0.00 | 0.00 | 79 | 1007.8 |
| 20260506231517 | 13 | 0.0 | 0.0 | 0.00 | 0.00 | 0.00 | 75 | 1007.8 | |
| 20260506230539 | 12 | 126 | 1.6 | 6.4 | 0.00 | 0.00 | 0.00 | 79 | 1007.8 |
| 20260506225523 | 13 | 25 | 4.8 | 9.7 | 0.00 | 0.00 | 0.00 | 73 | 1007.8 |
| 20260506224515 | 13 | 66 | 1.6 | 4.8 | 0.00 | 0.43 | 0.00 | 75 | 1007.8 |
| 20260506223525 | 13 | 20 | 1.6 | 3.2 | 0.00 | 0.43 | 0.00 | 75 | 1007.8 |
| 20260506222545 | 13 | 62 | 1.6 | 3.2 | 0.00 | 0.43 | 0.00 | 76 | 1007.8 |
| 20260506221534 | 13 | 51 | 3.2 | 4.8 | 0.00 | 0.43 | 0.00 | 73 | 1007.8 |
| 20260506220534 | 13 | 14 | 1.6 | 4.8 | 0.00 | 0.43 | 0.00 | 75 | 1007.8 |
| 20260506215547 | 13 | 10 | 1.6 | 4.8 | 0.00 | 0.43 | 0.74 | 76 | 1007.8 |
| 20260506214537 | 13 | 268 | 1.6 | 6.4 | 0.00 | 0.86 | 0.74 | 77 | 1007.8 |
| 20260506213523 | 13 | 23 | 4.8 | 8.0 | 0.00 | 0.86 | 0.74 | 74 | 1007.8 |
| 20260506212545 | 13 | 43 | 4.8 | 6.4 | 0.00 | 0.86 | 0.74 | 73 | 1007.8 |
| 20260506211517 | 13 | 37 | 3.2 | 3.2 | 0.00 | 0.86 | 0.74 | 74 | 1007.8 |
| 20260506210557 | 13 | 64 | 4.8 | 8.0 | 0.00 | 0.86 | 0.74 | 73 | 1006.8 |
| 20260506205602 | 13 | 43 | 6.4 | 9.7 | 0.00 | 0.86 | 0.74 | 74 | 1006.8 |
| 20260506204528 | 13 | 13 | 6.4 | 11.3 | 0.00 | 0.86 | 0.74 | 73 | 1006.8 |
| 20260506203523 | 14 | 27 | 6.4 | 9.7 | 0.00 | 0.86 | 0.74 | 72 | 1006.8 |
| 20260506202540 | 14 | 55 | 9.7 | 16.1 | 0.00 | 0.86 | 0.74 | 71 | 1006.8 |
| 20260506201607 | 14 | 46 | 9.7 | 14.5 | 0.00 | 0.86 | 0.74 | 70 | 1006.8 |
| 20260506200523 | 14 | 34 | 9.7 | 16.1 | 0.00 | 0.86 | 0.74 | 70 | 1006.8 |
| 20260506195515 | 15 | 13 | 3.2 | 3.2 | 0.00 | 0.86 | 0.74 | 70 | 1006.8 |
| 20260506194523 | 15 | 24 | 4.8 | 9.7 | 0.00 | 0.86 | 0.74 | 71 | 1006.8 |
| 20260506193520 | 15 | 37 | 8.0 | 9.7 | 0.00 | 0.86 | 0.74 | 69 | 1006.8 |
| 20260506192524 | 15 | 48 | 8.0 | 16.1 | 0.00 | 0.86 | 0.74 | 68 | 1006.8 |
| 20260506191531 | 15 | 41 | 8.0 | 9.7 | 0.00 | 0.86 | 0.74 | 67 | 1006.8 |
| 20260506190547 | 15 | 48 | 6.4 | 9.7 | 0.00 | 0.86 | 0.74 | 66 | 1006.8 |
| 20260506185535 | 15 | 23 | 8.0 | 9.7 | 0.00 | 0.86 | 0.74 | 65 | 1006.8 |
| 20260506184529 | 15 | 32 | 8.0 | 11.3 | 0.00 | 0.86 | 0.74 | 63 | 1006.8 |
| 20260506183546 | 15 | 38 | 8.0 | 11.3 | 0.00 | 0.86 | 0.74 | 61 | 1006.8 |
| 20260506182523 | 16 | 36 | 4.8 | 6.4 | 0.00 | 0.86 | 0.74 | 59 | 1006.8 |
| 20260506181558 | 16 | 57 | 6.4 | 8.0 | 0.00 | 0.86 | 0.74 | 57 | 1006.8 |
| 20260506180552 | 16 | 20 | 6.4 | 6.4 | 0.00 | 0.86 | 0.74 | 53 | 1006.8 |
| 20260506175533 | 16 | 68 | 4.8 | 6.4 | 0.00 | 0.86 | 0.74 | 51 | 1006.2 |
| 20260506174524 | 17 | 41 | 6.4 | 8.0 | 0.00 | 0.86 | 0.74 | 49 | 1005.8 |
| 20260506173541 | 17 | 29 | 4.8 | 8.0 | 0.00 | 0.86 | 0.74 | 48 | 1005.8 |
| 20260506172020 | 17 | 42 | 4.8 | 8.0 | 0.00 | 0.86 | 0.74 | 47 | 1005.8 |
| 20260506171027 | 18 | 37 | 3.2 | 9.7 | 0.00 | 0.86 | 0.74 | 46 | 1005.8 |
| 20260506165515 | 18 | 38 | 1.6 | 3.2 | 0.00 | 0.86 | 0.74 | 46 | 1005.8 |
| 20260506164545 | 18 | 180 | 0.0 | 1.6 | 0.00 | 0.86 | 0.74 | 47 | 1005.8 |
| 20260506163548 | 18 | 232 | 0.0 | 3.2 | 0.00 | 0.86 | 0.74 | 46 | 1005.8 |
| 20260506162049 | 18 | 39 | 4.8 | 11.3 | 0.00 | 0.86 | 0.74 | 45 | 1006.8 |
| 20260506161023 | 19 | 349 | 9.7 | 16.1 | 0.00 | 0.86 | 0.74 | 44 | 1006.2 |
| 20260506160045 | 20 | 52 | 3.2 | 3.2 | 0.00 | 0.86 | 0.74 | 43 | 1005.8 |
| 20260506154539 | 20 | 45 | 0.0 | 3.2 | 0.00 | 0.86 | 0.74 | 43 | 1005.8 |
| 20260506153526 | 20 | 30 | 3.2 | 3.2 | 0.00 | 0.86 | 0.74 | 43 | 1006.8 |
| 20260506152559 | 20 | 330 | 1.6 | 1.6 | 0.00 | 0.86 | 0.74 | 43 | 1006.3 |
| 20260506151537 | 20 | 299 | 1.6 | 3.2 | 0.00 | 0.86 | 0.74 | 42 | 1005.8 |
| 20260506150527 | 20 | 296 | 1.6 | 3.2 | 0.00 | 0.86 | 0.74 | 42 | 1006.8 |
| 20260506145522 | 20 | 260 | 1.6 | 4.8 | 0.00 | 0.86 | 0.74 | 41 | 1006.8 |
| 20260506144535 | 20 | 225 | 0.0 | 0.0 | 0.00 | 0.86 | 0.74 | 41 | 1006.8 |
| 20260506143555 | 21 | 19 | 1.6 | 3.2 | 0.00 | 0.86 | 0.74 | 43 | 1006.8 |
| 20260506142535 | 21 | 9 | 1.6 | 3.2 | 0.00 | 0.86 | 0.74 | 42 | 1006.8 |
| 20260506141531 | 21 | 312 | 3.2 | 4.8 | 0.00 | 0.86 | 0.74 | 41 | 1006.8 |
| 20260506140518 | 20 | 13 | 1.6 | 3.2 | 0.00 | 0.86 | 0.74 | 42 | 1006.8 |
| 20260506135615 | 20 | 348 | 3.2 | 4.8 | 0.00 | 0.86 | 0.74 | 42 | 1006.8 |
| 20260506134531 | 20 | 285 | 1.6 | 3.2 | 0.00 | 0.86 | 0.74 | 43 | 1006.8 |
| 20260506133551 | 20 | 284 | 3.2 | 4.8 | 0.00 | 0.86 | 0.74 | 43 | 1006.8 |
| 20260506132521 | 20 | 260 | 3.2 | 6.4 | 0.00 | 0.86 | 0.74 | 43 | 1006.8 |
| 20260506131529 | 21 | 225 | 3.2 | 6.4 | 0.00 | 0.86 | 0.74 | 42 | 1006.8 |
| 20260506130545 | 21 | 272 | 4.8 | 8.0 | 0.00 | 0.86 | 0.74 | 43 | 1006.8 |
| 20260506125528 | 20 | 225 | 4.8 | 8.0 | 0.00 | 0.86 | 0.74 | 43 | 1006.8 |
| 20260506124547 | 21 | 216 | 3.2 | 6.4 | 0.00 | 0.86 | 0.74 | 43 | 1006.8 |
| 20260506123553 | 20 | 226 | 4.8 | 6.4 | 0.00 | 0.86 | 0.74 | 45 | 1007.8 |
| 20260506122541 | 18 | 260 | 1.6 | 4.8 | 0.00 | 0.86 | 0.74 | 46 | 1007.2 |
| 20260506121526 | 19 | 237 | 4.8 | 8.0 | 0.00 | 0.86 | 0.74 | 44 | 1006.8 |
| 20260506120523 | 20 | 213 | 4.8 | 6.4 | 0.00 | 0.86 | 0.74 | 44 | 1006.8 |
| 20260506115545 | 20 | 241 | 4.8 | 6.4 | 0.00 | 0.86 | 0.74 | 44 | 1006.8 |
| 20260506114523 | 18 | 239 | 4.8 | 9.7 | 0.00 | 0.86 | 0.74 | 44 | 1006.8 |
| 20260506113558 | 19 | 233 | 4.8 | 4.8 | 0.00 | 0.86 | 0.74 | 45 | 1006.8 |
| 20260506112617 | 19 | 243 | 4.8 | 6.4 | 0.00 | 0.86 | 0.74 | 45 | 1006.8 |
| 20260506111521 | 20 | 233 | 4.8 | 6.4 | 0.00 | 0.86 | 0.74 | 45 | 1006.8 |
| 20260506110523 | 21 | 258 | 4.8 | 6.4 | 0.00 | 0.86 | 0.74 | 46 | 1007.8 |
| 20260506105615 | 20 | 237 | 4.8 | 6.4 | 0.00 | 0.86 | 0.74 | 46 | 1007.8 |
| 20260506104539 | 19 | 261 | 3.2 | 4.8 | 0.00 | 0.86 | 0.74 | 49 | 1007.8 |
| 20260506103559 | 19 | 254 | 3.2 | 4.8 | 0.00 | 0.86 | 0.74 | 49 | 1006.8 |
| 20260506102527 | 20 | 204 | 4.8 | 6.4 | 0.00 | 0.86 | 0.74 | 48 | 1006.8 |
| 20260506101517 | 20 | 231 | 6.4 | 8.0 | 0.00 | 0.86 | 0.74 | 50 | 1006.8 |
| 20260506100143 | 19 | 215 | 6.4 | 9.7 | 0.00 | 0.86 | 0.74 | 54 | 1006.8 |
| 20260506095033 | 18 | 219 | 9.7 | 12.9 | 0.00 | 0.86 | 0.74 | 55 | 1006.8 |
| 20260506094053 | 16 | 189 | 6.4 | 9.7 | 0.00 | 0.86 | 0.74 | 61 | 1006.8 |
| 20260506093056 | 16 | 214 | 4.8 | 9.7 | 0.00 | 0.86 | 0.74 | 62 | 1006.8 |
| 20260506092031 | 16 | 186 | 3.2 | 6.4 | 0.00 | 0.86 | 0.74 | 66 | 1006.8 |
| 20260506091023 | 16 | 212 | 4.8 | 4.8 | 0.00 | 0.86 | 0.74 | 66 | 1006.8 |
| 20260506090048 | 16 | 227 | 4.8 | 9.7 | 0.00 | 0.86 | 0.74 | 66 | 1006.8 |
| 20260506085034 | 16 | 214 | 3.2 | 4.8 | 0.00 | 0.86 | 0.74 | 66 | 1006.8 |
| 20260506084050 | 16 | 229 | 3.2 | 4.8 | 0.00 | 0.86 | 0.74 | 66 | 1006.8 |
| 20260506083045 | 16 | 182 | 3.2 | 8.0 | 0.00 | 0.86 | 0.74 | 67 | 1006.8 |
| 20260506082047 | 15 | 205 | 3.2 | 3.2 | 0.00 | 0.86 | 0.74 | 66 | 1006.8 |
| 20260506081053 | 16 | 228 | 6.4 | 12.9 | 0.00 | 0.86 | 0.74 | 64 | 1006.8 |
| 20260506073030 | 16 | 190 | 4.8 | 8.0 | 0.00 | 0.86 | 0.74 | 68 | 1006.8 |
| 20260506072044 | 15 | 196 | 3.2 | 8.0 | 0.00 | 0.86 | 0.74 | 70 | 1006.8 |
| 20260506071023 | 15 | 256 | 3.2 | 9.7 | 0.00 | 0.86 | 0.74 | 73 | 1006.8 |
| 20260506070117 | 14 | 226 | 3.2 | 4.8 | 0.00 | 0.86 | 0.74 | 76 | 1006.8 |
| 20260506062023 | 13 | 237 | 3.2 | 4.8 | 0.00 | 0.86 | 0.74 | 81 | 1006.8 |
| 20260506060538 | 13 | 210 | 3.2 | 3.2 | 0.00 | 0.86 | 0.74 | 82 | 1006.8 |